SCP
0 0 0 0 1 1 1 1 1 1 1 1 1 1 1 1 0 0 0 0 0 0 0 0 0 0 0 0 0 0 0 0 0 0 0 0 0 0 0 0 0 0 0
0 0 0 0 1 1 1 1 1 1 1 1 1 1 1 1 0 0 0 0 0 0 0 0 0 0 0 0 0 0 0 0 0 0 0 0 0 0 0 0 0 0 0
0 0 0 0 1 1 1 1 1 1 1 1 1 1 1 1 0 0 0 0 0 0 0 0 0 0 0 0 0 0 0 0 0 0 0 0 0 0 0 0 0 0 0
0 0 0 0 1 1 1 1 1 1 1 1 1 1 1 1 1 0 0 0 0 0 0 0 0 0 0 0 0 0 0 0 0 0 0 0 0 0 0 0 0 0 0
0 0 0 1 1 1 1 1 1 1 1 1 1 1 1 1 1 0 0 0 0 0 0 0 0 0 0 0 0 0 0 0 0 0 0 0 0 0 0 0 0 0 0
0 0 0 1 1 1 1 1 1 1 1 1 1 1 1 1 1 1 0 0 0 0 0 0 0 0 0 0 0 0 0 0 0 0 0 0 0 0 0 0 0 0 0
0 0 0 1 1 1 1 1 1 1 1 1 1 1 1 1 1 1 1 1 0 0 0 0 0 0 0 0 0 0 0 0 0 0 0 0 0 0 0 0 0 0 0
0 0 0 1 1 1 1 1 1 1 1 1 1 1 1 1 1 1 1 1 1 0 0 0 0 0 0 0 0 0 0 0 0 0 0 0 0 0 0 0 0 0 0
0 0 0 0 0 0 0 0 1 1 1 1 1 1 1 1 1 1 1 1 1 1 0 0 0 0 0 0 0 0 0 0 0 0 0 0 0 0 0 0 0 0 0
0 0 0 0 0 0 0 0 0 0 0 0 0 1 1 1 1 1 1 1 1 0 0 0 0 0 0 0 0 0 0 0 0 0 0 0 0 0 0 0 0 0 0
0 0 0 0 0 0 0 0 0 0 0 0 0 0 0 1 1 1 1 1 1 0 0 0 0 0 0 0 0 0 0 0 0 0 0 0 0 0 0 0 0 0 0
0 0 0 0 0 0 0 0 0 0 0 0 0 0 0 0 0 1 1 1 0 0 0 0 0 0 0 0 0 0 0 0 0 0 0 0 0 0 0 0 0 0 0
0 0 0 0 0 0 0 0 0 0 0 0 0 0 0 0 0 1 1 0 0 0 0 0 0 0 0 0 0 0 0 0 0 0 0 0 0 0 0 0 0 0 0
0 0 0 0 0 0 0 0 0 0 0 0 0 0 0 0 0 0 0 0 0 0 0 0 0 0 0 0 0 0 0 0 0 0 0 0 0 0 0 0 0 0 0
0 0 0 0 0 0 0 0 0 0 0 0 0 0 0 0 0 0 0 0 0 0 0 0 0 0 0 0 0 0 0 0 0 0 0 0 0 0 0 0 0 0 0
0 0 0 0 0 0 0 0 0 0 0 0 0 0 0 0 0 0 0 0 0 0 0 0 0 0 0 0 0 0 0 0 0 0 0 0 0 0 0 0 0 0 0
0 0 0 0 0 0 0 0 0 0 0 0 0 0 0 0 0 0 0 0 0 0 0 0 0 0 0 0 0 0 0 0 0 0 0 0 0 0 0 0 0 0 0
0 0 0 0 0 0 0 0 0 0 0 0 0 0 0 0 0 0 0 0 0 0 0 0 0 0 0 0 0 0 0 0 0 0 0 0 0 0 0 0 0 0 0
0 0 0 0 0 0 0 0 0 0 0 0 0 0 0 0 0 0 0 0 0 0 0 0 0 0 0 0 0 0 0 0 0 0 0 0 0 0 0 0 0 0 0
0 0 0 0 0 0 0 0 0 0 0 0 0 0 0 0 0 0 0 0 0 0 0 0 0 0 0 0 0 0 0 0 0 0 0 0 0 0 0 0 0 0 0
0 0 0 0 0 0 0 0 0 0 0 0 0 0 0 0 0 0 0 0 0 0 0 0 0 0 0 0 0 0 0 0 0 0 0 0 0 0 0 0 0 0 0
0 0 0 0 0 0 0 0 0 0 0 0 0 0 0 0 0 0 0 0 0 0 0 0 0 0 0 0 0 0 0 0 0 0 0 0 0 0 0 0 0 0 0
0 0 0 0 0 0 0 0 0 0 0 0 0 0 0 0 0 0 0 0 0 0 0 0 0 0 0 0 0 0 0 0 0 0 0 0 0 0 0 0 0 0 0
0 0 0 0 0 0 0 0 0 0 0 0 0 0 0 0 0 0 0 0 0 0 0 0 0 0 0 0 0 0 0 0 0 0 0 0 0 0 0 0 0 0 0
0 0 0 0 0 0 0 0 0 0 0 0 0 0 0 0 0 0 0 0 0 0 0 0 0 0 0 0 0 0 0 0 0 0 0 0 0 0 0 0 0 0 0
0 0 0 0 0 0 0 0 0 0 0 0 0 0 0 0 0 0 0 0 0 0 0 0 0 0 0 0 0 0 0 0 0 0 0 0 0 0 0 0 0 0 0
Wind_Speed
3 5 8 8 9 10 11 11 11 11 12 12 12 12 13 13 13 13 12 12 12 11 11 11 11 11 11 11 12 12 11 11 11 11 11 11 12 12 11 12 11 8 11
6 6 8 8 9 10 11 11 11 11 11 12 12 11 11 12 12 11 12 11 11 11 11 11 11 11 11 11 11 11 11 11 11 11 11 11 11 11 11 11 10 7 12
7 6 7 8 9 10 11 11 11 11 11 12 11 11 11 11 11 11 11 10 10 10 10 10 10 10 10 10 10 10 10 10 10 10 9 6 7 11 10 10 10 10 11
6 5 6 8 9 10 10 11 11 11 11 11 11 11 11 11 10 10 10 10 10 9 9 9 9 9 9 8 9 9 9 10 9 9 5 5 5 9 10 10 10 11 10
5 4 5 9 9 9 10 10 10 11 11 11 11 11 11 10 9 9 9 10 9 8 8 9 8 8 8 8 7 7 8 9 9 7 5 4 3 7 9 10 10 11 10
4 4 5 8 8 8 9 8 9 10 10 10 10 10 10 10 9 9 9 9 9 8 8 8 8 7 7 7 7 7 7 8 7 5 4 4 4 7 9 11 11 10 10
5 3 4 7 7 7 8 8 8 8 9 9 9 9 9 9 8 8 8 8 8 8 8 8 7 7 6 6 6 6 6 7 5 5 4 5 5 8 9 11 11 10 9
5 4 4 7 7 7 7 7 8 8 8 8 8 8 8 8 7 7 7 7 7 7 7 7 7 6 6 6 6 6 6 6 5 5 4 5 7 8 9 10 9 8 9
4 3 2 3 4 6 6 7 7 7 7 7 7 7 7 7 7 7 7 7 6 6 6 6 6 6 5 6 6 6 6 6 4 3 5 4 7 9 9 9 9 8 8
3 3 2 2 2 2 3 6 6 6 6 6 6 7 7 7 6 6 6 6 6 5 5 6 5 5 4 5 5 6 6 5 3 3 3 4 8 9 9 9 9 8 8
2 2 2 2 2 2 3 4 5 5 5 5 5 6 5 2 2 3 4 5 6 6 5 5 5 5 4 4 4 5 4 2 4 3 3 6 9 10 9 9 9 9 9
3 3 3 3 2 2 2 2 1 2 2 1 1 2 2 2 1 2 2 4 4 4 4 4 4 3 2 1 2 3 1 3 3 3 4 9 10 10 10 9 9 9 9
2 2 2 2 2 2 2 2 1 1 1 1 1 2 1 1 1 0 0 1 1 1 0 1 1 1 1 1 1 1 2 2 3 3 4 9 10 11 11 10 10 10 10
2 2 2 2 2 2 2 1 1 1 1 1 1 2 2 1 1 1 1 0 0 0 0 0 1 1 1 2 3 3 3 2 3 3 4 9 10 11 11 11 11 11 11
2 2 2 2 2 2 1 1 1 1 1 1 1 1 2 2 2 1 1 1 1 1 1 1 1 1 1 1 2 3 3 4 4 4 3 9 10 11 12 12 12 12 12
2 2 2 2 2 2 2 1 1 1 1 1 1 1 2 2 2 2 1 1 1 1 1 1 1 1 1 1 2 2 3 3 4 4 4 6 9 10 12 13 13 13 13
2 2 2 2 2 2 1 1 1 0 1 1 0 0 1 2 2 2 1 1 1 1 1 1 1 1 1 1 2 2 2 3 3 4 5 4 5 9 12 13 13 13 13
3 2 2 2 3 2 2 1 1 0 1 0 0 0 1 1 2 2 2 1 1 1 1 1 1 1 1 1 1 2 2 2 4 4 4 4 4 4 8 12 12 13 13
3 3 2 2 2 2 2 1 1 1 1 0 0 1 1 1 1 2 1 1 1 1 1 1 1 1 1 1 2 2 2 2 3 4 4 5 5 5 4 7 11 12 12
2 2 2 2 2 2 1 1 1 1 1 0 0 1 1 1 1 1 1 1 1 1 0 1 1 0 1 1 2 2 2 3 3 3 4 4 4 5 5 5 5 7 11
1 2 2 2 1 2 1 1 1 0 0 0 1 1 1 1 2 2 1 1 1 1 1 1 1 1 1 0 0 1 2 2 2 3 3 3 4 4 4 5 4 4 5
2 2 2 2 2 2 2 1 1 1 1 1 1 1 1 2 2 2 2 1 1 1 1 1 1 1 1 0 1 0 1 2 2 2 2 3 3 3 4 5 4 5 5
2 2 1 1 1 1 1 1 1 1 1 1 1 1 1 1 1 2 2 1 1 1 1 2 2 2 2 1 2 2 2 2 1 2 2 2 2 2 3 3 4 5 6
2 1 1 1 1 1 1 2 2 1 1 1 1 1 1 1 1 1 1 1 1 1 2 2 2 2 3 2 2 2 2 2 2 1 1 1 1 2 3 3 3 3 4
1 1 1 0 0 0 1 2 2 1 1 0 0 0 1 1 1 2 1 2 2 2 2 2 2 3 3 3 2 2 2 1 2 2 3 2 1 2 2 2 2 2 3
1 0 1 1 0 0 0 1 2 2 2 1 0 1 1 1 1 1 1 2 2 2 3 3 3 3 3 3 2 2 2 2 2 3 3 2 2 2 2 2 2 3 3
Wind_Direction
164 156 151 142 138 131 125 121 118 118 116 117 121 125 129 135 137 140 141 142 141 140 138 136 135 138 140 141 140 138 140 142 142 143 143 142 142 142 140 138 137 139 140
152 153 152 147 142 136 131 127 123 122 122 121 123 126 129 134 137 139 141 144 145 145 143 141 141 140 143 146 144 143 144 145 147 147 146 145 146 146 145 144 144 146 147
142 150 152 148 145 141 137 134 131 129 129 128 128 130 134 136 138 142 143 145 147 148 150 148 147 146 146 150 150 148 149 149 151 151 146 142 150 152 152 152 150 148 151
140 144 152 152 148 143 140 138 137 137 136 136 136 135 136 139 142 146 149 150 151 153 154 153 152 151 151 153 155 156 157 158 159 156 146 148 159 160 160 159 157 157 158
130 138 155 155 154 149 143 142 143 141 140 142 141 141 140 141 144 149 153 155 156 158 160 160 159 157 160 161 162 165 167 167 166 158 148 153 160 167 166 167 167 166 166
132 141 158 155 153 150 144 144 145 144 144 145 145 146 145 146 150 152 155 159 161 163 165 167 166 166 169 173 175 175 173 172 166 157 158 164 172 180 179 176 176 175 173
140 143 154 151 149 151 153 153 149 147 148 149 150 151 151 153 156 159 160 161 164 168 171 171 166 169 172 175 180 180 180 179 167 165 170 174 186 186 186 182 179 180 181
144 142 148 154 153 157 158 155 152 150 151 152 152 152 153 155 157 161 165 165 166 171 179 176 175 179 183 187 189 187 185 184 181 178 180 186 192 193 187 182 178 181 185
134 139 143 145 154 158 156 155 153 151 152 156 157 157 156 157 160 167 172 172 173 177 181 182 183 187 193 196 196 193 193 191 179 177 193 194 193 194 189 184 183 189 192
126 136 132 133 149 158 163 164 163 161 160 163 166 166 166 169 170 175 177 179 183 192 195 194 193 193 196 199 203 202 199 191 182 189 198 200 200 200 194 190 191 197 198
149 146 146 157 163 174 174 177 171 171 171 168 172 173 165 163 177 185 186 188 194 200 205 206 203 203 204 208 210 210 205 187 188 198 201 206 207 205 201 197 199 205 199
185 183 170 172 176 182 185 151 139 155 144 143 147 158 151 146 182 185 196 202 204 208 214 217 217 213 206 205 215 216 195 190 197 203 205 209 209 207 206 205 209 212 201
181 156 161 172 164 175 166 152 143 143 139 145 154 160 151 143 158 184 160 234 238 216 211 238 228 209 197 197 203 206 204 202 202 211 212 212 212 212 210 208 211 212 206
153 166 166 172 167 169 150 149 149 157 155 163 173 159 156 155 167 176 182 191 170 190 171 171 218 226 222 211 206 212 213 212 208 210 217 219 218 216 214 212 213 211 207
158 172 171 160 161 147 133 153 148 167 170 173 169 166 161 167 186 186 199 187 183 189 181 181 218 216 241 237 225 219 222 222 218 215 223 225 224 220 219 219 217 217 211
166 165 154 158 161 143 149 156 157 155 152 157 177 184 180 177 172 170 177 183 207 209 196 194 200 210 232 228 243 234 226 224 218 217 222 227 226 223 221 224 222 220 214
168 161 157 158 133 125 123 112 103 139 153 161 164 159 167 167 164 163 168 187 212 197 185 171 217 223 235 229 242 245 230 222 224 222 223 222 225 226 223 225 226 222 218
163 163 173 148 119 109 99 93 95 87 99 93 124 157 192 178 165 160 170 203 201 176 171 174 200 212 245 243 247 256 246 230 231 229 226 222 218 223 227 226 227 224 220
173 164 163 144 134 129 118 114 112 95 75 32 319 197 190 177 165 155 164 197 173 165 188 209 188 190 229 252 254 253 249 244 240 236 229 227 223 219 221 229 227 226 225
157 154 164 164 146 125 112 102 80 61 46 34 259 226 169 169 168 151 158 173 156 152 196 189 199 207 222 242 268 272 265 255 241 237 236 235 228 226 225 228 225 230 230
142 157 181 170 161 133 132 145 135 168 232 245 233 209 192 181 177 163 172 162 165 177 217 203 180 224 252 224 297 309 304 271 249 241 237 234 234 234 233 229 225 225 231
180 192 195 185 181 178 180 177 170 168 180 208 232 241 209 197 199 183 175 183 183 175 214 200 176 181 250 177 174 197 308 326 296 248 240 232 237 234 237 236 231 229 229
201 205 187 197 199 196 175 117 82 58 51 30 338 291 255 216 195 186 184 189 191 188 216 222 193 190 214 227 199 188 192 225 286 299 266 251 244 237 243 244 237 239 234
216 199 187 201 212 223 166 151 152 159 192 225 235 260 293 255 217 208 194 188 208 210 223 237 216 210 207 227 226 229 222 196 197 272 294 278 268 248 243 251 250 247 242
187 160 179 156 220 245 174 171 160 189 229 239 289 294 301 298 259 231 208 200 215 224 232 235 226 217 212 218 215 211 219 236 219 214 259 275 275 258 257 253 254 256 254
101 109 133 132 293 304 182 172 172 190 205 196 264 277 298 309 303 271 221 212 218 225 231 232 223 218 218 217 221 214 204 202 201 199 228 251 265 276 271 255 244 246 248